Regional Weather Roundup
Issued by NWS

Home | Current Version | Previous Version | Text Only | Print | Product List | Glossary Off
Versions: 1 2 3 4 5 6 7 8 9 10 11 12 13 14 15 16 17 18 19 20 21 22 23 24 25 26 27 28 29 30 31 32 33 34 35 36 37 38 39 40 41 42 43 44 45 46 47 48 49 50

000
ASUS43 KDTX 221110
RWRMI
MICHIGAN HOURLY REGIONAL WEATHER ROUNDUP
NATIONAL WEATHER SERVICE DETROIT/PONTIAC MI
600 AM EST MON DEC 22 2014

NOTE: "FAIR" INDICATES FEW OR NO CLOUDS BELOW 12,000 FEET WITH NO
SIGNIFICANT WEATHER AND/OR OBSTRUCTION TO VISIBILITY.

MIZ047>049-052>055-059>063-066>070-074>076-081>083-221200-
SOUTHEAST LOWER MICHIGAN

CITY           SKY/WX    TMP DP  RH WIND       PRES   REMARKS
ADRIAN         CLEAR     24  21  88 E6        30.09F FOG
ALMA           MOCLDY    25  24  98 E3        30.09F FOG
ANN ARBOR      PTCLDY    23  21  92 NE6       30.09F FOG
BAD AXE        MOCLDY    27  24  88 SE6       30.13S
DETROIT CITY   MOCLDY    27  22  81 E3        30.12F HAZE
DETROIT        CLOUDY    27  23  85 NE3       30.12F FOG
FLINT          CLOUDY    27  22  81 SE5       30.11S
GROSSE ILE     MOCLDY    28  25  86 CALM      30.10F
HILLSDALE      CLEAR     25  23  93 SE7       30.04F FOG
HOWELL         MOCLDY    25  24  95 E6        30.08F FOG

CITY           SKY/WX    TMP DP  RH WIND       PRES   REMARKS
JACKSON        PTCLDY    25  21  85 SE7       30.06F FOG
LAMBERTVILLE   PTCLDY    25  21  86 E3        30.10F FOG
LANSING        MOCLDY    27  23  85 SE8       30.08F FOG
LAPEER         NOT AVBL
MASON          MOCLDY    26  24  89 SE5       30.07F FOG
MONROE         MOCLDY    28  25  86 E5        30.08F
MT. CLEMENS    MOCLDY    28  27  93 SE6       30.11S
PONTIAC        CLOUDY    26  22  84 SE5       30.09F
PORT HOPE        N/A     30  24  78 S5        30.12S
PORT HURON     CLOUDY    30  25  80 SE5       30.14S
TRI CITIES     MOCLDY    28  23  81 SE7       30.12S
YPSILANTI      MOCLDY    27  21  78 NE5       30.11F HAZE
$$
MIZ043>046-050>051-056>058-064>065-071>073-077>080-221200-
SOUTHWEST LOWER MICHIGAN

CITY           SKY/WX    TMP DP  RH WIND       PRES   REMARKS
BATTLE CREEK   MOCLDY    28  22  78 E8        30.04F
BENTON HARBOR  MOCLDY    28  24  85 SE10      30.00F FOG
BIG RAPIDS     CLOUDY    29  27  92 SE7       30.03F FOG
COLDWATER        N/A     26  23  87 SE6       30.03F FOG
HOLLAND        MOCLDY    30  23  75 SE12      30.02F
GRAND RAPIDS   MOCLDY    26  22  84 SE6       30.05S FOG
KALAMAZOO      PTCLDY    28  22  78 SE6       30.04R
MARSHALL       PTCLDY    24  21  89 E5        30.05S FOG
MUSKEGON       CLOUDY    30  24  78 SE9       30.02F
$$
MIZ016>042-221200-
NORTHERN LOWER MICHIGAN

CITY           SKY/WX    TMP DP  RH WIND       PRES   REMARKS
ALPENA         MOCLDY    29  25  85 SE9       30.12S
BEAVER ISLAND  CLOUDY    33  29  86 SE8       30.02F
BELLAIRE       CLOUDY    31  25  79 S7        30.05S
CADILLAC       CLOUDY    27  24  87 SE8       30.01S FOG
CHARLEVOIX     CLOUDY    31  26  83 SE6       30.06F
FRANKFORT      CLOUDY    32  27  82 S7        30.01S
GAYLORD        CLOUDY    26  23  88 S10       30.03F FOG
GRAYLING       CLOUDY    28  26  91 SE6       30.05F FOG
HARBOR SPRINGS CLOUDY    30  25  81 E3        30.05F
HOUGHTON LAKE  CLOUDY    26  22  84 SE6       30.06F
MANISTEE       CLOUDY    30  23  74 SE9       30.01F
OSCODA         CLOUDY    29  26  89 CALM      30.13S
PELLSTON       CLOUDY    30  25  81 SE10      30.06S
TRAVERSE CITY  CLOUDY    32  25  75 S7        30.02S
$$
MIZ007>008-015-221200-
EASTERN UPPER MICHIGAN

CITY           SKY/WX    TMP DP  RH WIND       PRES   REMARKS
KINROSS        CLOUDY    30  30 100 SE13      30.05S
MACKINAC ISLAN CLOUDY    31  26  82 S12G22    30.05S
S. S. MARIE    LGT SNOW  31  28  89 SE8       30.09R FOG
$$
MIZ004>006-011>014-085-221200-
CENTRAL UPPER MICHIGAN

CITY           SKY/WX    TMP DP  RH WIND       PRES   REMARKS
MANISTIQUE     CLOUDY    34  32  93 S12G17    29.98F FOG
ESCANABA       CLOUDY    36  32  87 S10       29.94F
MENOMINEE      CLOUDY    36  30  80 S12       29.93S
SAWYER-GWINN   CLOUDY    33  32  96 S15       29.89F FOG
$$
MIZ001>003-009>011-084-221200-
WESTERN UPPER MICHIGAN

CITY           SKY/WX    TMP DP  RH WIND       PRES   REMARKS
IRON MOUNTAIN  CLOUDY    33  30  88 SE9       29.88S FOG
HOUGHTON       LGT SNOW  32  31  96 S9        29.82F VSB 3/4
COPPER HARBOR    N/A     35  32  88 SW10      29.85S
IRONWOOD       CLOUDY    36  34  93 S7        29.75S
$$

ABBREVIATIONS USED IN REMARKS
   TC - TEMPERATURE IN CELSIUS
  WCI - WIND CHILL INDEX
   HX - HEAT INDEX
  VSB - VISIBILITY



USA.gov is the U.S. government's official web portal to all federal, state and local government web resources and services.